Meteo Giornale » Osservazioni meteo Stati Uniti (USA) » San Diego Montgomery Fld
ore: 00:53 - Osservazioni Meteo San Diego Montgomery Fld
Lat. 32° 48' N Lon. 117° 8' W Alt. 128 metri s.l.m.
20 °C
Sereno
Temp. 24 Ore
20 °C
27 °C
Nord
5.5 Km/h
Dew point 18 °C
Umidità 88 %
Visibilità 10 Km
Il sole sorge alle ore 06:23
Il sole tramonta alle ore 19:13
| Data e Ora | Cielo e Fenomeni | T °C | DP °C | Um. % | Pres. hPa | Vis. km | Vento km/h | |
|---|---|---|---|---|---|---|---|---|
| Oggi h: 00:53 | Sereno | 20 | 18 | 88 | 1014 | 10 | N 5.5 | |
| Ieri h: 23:53 | Sereno | 21 | 18 | 82 | 1014 | 10 | O/NO 7.4 | |
| Ieri h: 22:53 | Sereno | 21 | 18 | 82 | 1014 | 10 | O/NO 7.4 | |
| Ieri h: 21:53 | Sereno | 21 | 18 | 82 | 1014 | 10 | O/NO 7.4 | |
| Ieri h: 20:53 | Sereno | 21 | 18 | 82 | 1014 | 10 | O/NO 9.3 | |
| Ieri h: 18:53 | Sereno | 23 | 17 | 68 | 1012 | 10 | O 11.1 | |
| Ieri h: 17:53 | Sereno | 24 | 17 | 64 | 1012 | 10 | O 14.8 | |
| Ieri h: 16:53 | Sereno | 26 | 17 | 57 | 1012 | 10 | O/NO 13 | |
| Ieri h: 15:53 | Sereno | 26 | 18 | 61 | 1013 | 10 | O/NO 14.8 | |
| Ieri h: 13:53 | Sereno | 27 | 16 | 50 | 1014 | 10 | O/SO 16.7 | |
| Ieri h: 12:53 | Sereno | 26 | 17 | 57 | 1014 | 10 | O 13 | |
| Ieri h: 11:53 | Sereno | 26 | 18 | 61 | 1014 | 10 | O/SO 14.8 | |
| Ieri h: 10:53 | Sereno | 25 | 18 | 65 | 1014 | 14 | SO 11.1 | |
| Ieri h: 09:53 | Sereno | 25 | 18 | 65 | 1014 | 14 | O 7.4 | |
| Ieri h: 08:53 | Sereno | 23 | 18 | 73 | 1014 | 13 | N 5.5 | |
| Ieri h: 07:53 | Sereno | 22 | 17 | 73 | 1014 | 13 | N 5.5 | |
| Ieri h: 06:53 | Sereno | 21 | 17 | 77 | 1013 | 13 | O 7.4 | |
| Ieri h: 06:25 | Poco Nuvoloso | 21 | 17 | 77 | 1012 | 13 | O/SO 7.4 | |
| Ieri h: 05:53 | Molto Nuvoloso | 21 | 17 | 77 | 1012 | 14 | N 5.5 | |
| Ieri h: 05:11 | Coperto | 21 | 18 | 82 | 1012 | 14 | O/NO 7.4 | |
| Ieri h: 04:53 | Coperto | 21 | 18 | 82 | 1012 | 14 | N 5.5 | |
| Ieri h: 03:53 | Molto Nuvoloso | 21 | 18 | 82 | 1012 | 13 | N 0 | |
| Ieri h: 02:53 | Coperto | 22 | 18 | 78 | 1012 | 13 | O/SO 9.3 | |
| Ieri h: 01:53 | Coperto | 22 | 19 | 83 | 1012 | 13 | O/SO 9.3 | |



